Lid_Strength_Index
14 14 14 13 12 10 11 10 9 10 9 10 9 9 10 9 4 3 3 4 5 5 7 8 9 8 8 8 9 8 9 10 13 17 16 14 14 11 12 11 11 10 10
16 15 14 13 13 12 12 11 9 9 8 9 9 9 9 8 4 3 4 4 5 8 8 8 9 9 9 9 9 9 9 9 12 15 17 16 14 14 14 14 13 13 13
16 16 15 14 14 13 12 11 10 9 9 8 8 9 9 9 5 4 4 5 5 7 8 9 10 9 10 9 9 9 9 12 11 14 16 16 16 13 15 15 15 15 14
16 16 16 15 14 13 12 11 10 9 8 8 7 8 8 7 5 4 6 6 6 8 8 8 9 8 9 9 9 9 10 12 12 13 14 16 15 16 13 14 16 17 16
16 16 15 14 13 12 12 11 10 8 8 7 7 7 7 5 5 6 6 7 8 9 9 9 9 9 10 9 9 10 10 11 12 13 15 16 16 15 14 15 15 17 17
17 15 13 11 10 11 11 10 9 8 8 6 7 8 7 6 6 7 7 7 9 9 10 10 10 12 11 10 10 10 9 11 12 13 15 14 15 14 14 14 16 15 16
17 15 13 9 6 9 8 8 8 8 7 6 5 5 6 7 7 7 8 8 9 9 9 11 11 11 11 10 11 11 11 10 10 12 14 14 15 14 14 15 15 14 17
18 16 13 9 7 7 7 7 7 7 6 5 4 5 6 7 7 8 9 9 9 10 10 10 11 12 11 11 12 12 12 11 11 12 12 13 13 13 13 14 14 16 16
19 17 14 11 10 9 8 7 6 6 6 7 6 6 7 7 7 8 9 10 11 12 11 11 11 11 12 11 11 12 12 13 11 11 11 12 12 12 12 13 15 14 17
19 18 15 13 11 10 9 9 8 7 8 10 9 9 8 9 8 9 10 11 13 13 13 13 12 11 11 10 10 11 12 13 12 13 13 13 12 12 12 11 13 13 16
18 17 17 15 14 13 12 11 11 10 10 12 11 12 11 10 10 10 9 12 12 13 13 14 12 11 10 9 9 10 11 13 12 13 14 14 14 13 13 13 12 12 14
18 18 17 16 16 14 14 14 13 13 13 13 13 13 13 12 11 10 10 11 11 13 13 13 12 11 11 10 11 11 11 12 13 14 14 15 15 14 15 14 14 14 14
19 19 18 16 15 15 16 16 16 15 16 15 15 15 15 14 13 12 12 11 12 13 13 12 11 11 11 11 11 11 13 13 13 14 14 15 15 15 15 15 15 15 15
19 20 19 19 18 15 15 14 13 14 15 16 15 16 15 15 15 14 14 13 13 13 12 12 12 12 12 13 13 13 13 13 13 14 15 15 15 15 15 15 15 15 16
20 20 20 19 20 19 17 15 15 14 14 16 15 14 15 15 14 13 13 13 13 13 12 12 13 13 14 14 14 14 13 13 13 14 14 14 15 15 15 14 15 16 17
20 20 21 20 20 20 20 19 14 13 13 12 12 13 13 12 12 12 12 12 12 12 13 13 13 13 14 14 14 14 14 14 14 14 14 15 15 16 16 16 16 16 16
22 21 20 21 20 20 20 20 20 18 16 14 12 12 11 11 11 11 12 12 12 12 14 13 14 14 14 14 14 14 15 15 14 14 14 15 15 15 15 15 15 16 16
24 23 22 21 21 21 21 21 20 21 21 21 16 14 12 11 11 11 11 12 14 14 14 14 14 14 13 14 14 14 14 14 14 14 14 14 14 14 14 14 15 16 16
23 23 24 23 22 22 21 21 21 21 21 21 19 18 19 12 13 13 13 14 15 15 15 15 14 14 13 13 13 14 14 14 14 14 14 13 13 13 14 14 15 15 16
25 22 24 24 23 23 23 23 23 22 22 21 20 21 21 17 17 17 17 16 16 15 14 14 14 14 13 13 13 12 12 12 13 13 13 13 15 13 14 15 15 16 16
29 27 26 25 25 26 25 25 25 24 24 24 23 16 15 21 18 18 18 18 17 16 15 14 14 14 13 13 12 12 13 13 14 15 14 13 14 15 16 15 15 18 19
30 31 30 29 29 27 27 27 27 26 26 26 27 24 18 23 23 23 22 22 19 16 15 14 14 14 14 13 13 12 12 14 16 18 15 14 15 15 15 16 18 18 20
30 30 30 31 31 28 27 28 28 28 29 29 30 27 27 29 29 29 29 29 27 21 17 14 14 14 13 13 12 13 13 20 19 17 16 14 14 15 16 17 18 19 19
30 30 30 32 31 31 31 31 31 28 30 30 31 31 30 31 31 30 30 30 28 28 24 17 14 15 14 13 12 13 13 20 20 16 15 15 15 15 16 16 17 18 18
31 30 30 30 31 31 31 31 30 31 31 29 28 29 30 29 29 30 30 30 30 29 26 22 15 14 14 20 13 13 13 14 18 15 14 14 15 15 15 16 17 17 19
30 30 30 31 30 31 31 30 30 30 29 28 28 29 29 28 29 29 29 29 28 27 26 25 22 22 19 23 22 21 20 14 13 14 14 14 15 15 15 16 17 18 19